Вернуться в каталог

STARLINK-32785

АктивенСвязьVLEO
NORAD 62531·PAYLOAD·🇺🇸 United States

Запущен Jan 8, 2025 с Cape Canaveral Space Force Station

Loading…

Ближайшие Пролёты (ближайшие 24 часа)

TLE

СвежийSource: CelesTrak SupGP

Эпоха: Sep 14, 2026, 13:49 UTC

1 62531C 25004W   26257.57618056 -.00023721  00000+0 -85952-3 0  2573
2 62531  43.0006 233.3543 0001239 269.0261  99.2092 15.27577546    17

Отслеживайте STARLINK-32785 в реальном времени с AllMySat

Download on the App Store